sat.trackr.live / text

‹ back to catalog

KAZEOSAT 1

NORAD 39731 · 2014-024A

PAYLOAD ACTIVE UNKNOWN

§ Identity

Operator
Country
KAZ
Launch date
2014-04-30
Launch site
FRGUI
Launch vehicle
Mass (kg)
RCS (m²)
4.22

Purposes: earth_obs

External: N2YO · Heavens-Above · Gunter

§ Orbital elements

Epoch: 2026-09-20T05:15:33.454080Z

Period
99.86 min
Inclination
98.3122°
Eccentricity
0.0001438
Mean motion
14.42065195 rev/d
Perigee alt
750.7 km
Apogee alt
752.7 km
Semi-major
7,129.8 km
B*
4.5111e-5
RAAN
333.2588°
Arg perigee
88.7244°
Mean anomaly
271.4110°
Rev number
65,225

§ Raw data

KAZEOSAT 11 39731U 14024A   26263.21913720  .00000106  00000+0  45111-4 0  99902 39731  98.3122 333.2588 0001438  88.7244 271.4110 14.42065195652254

JSON: /api/v1/satellites/39731 · /tle

For live sub-satellite position, see the globe view (requires WebGL).

§ Visibility from observer

Set your observer location to see the next 7 days of passes ≥ 10°. The values pass through the URL so the page stays shareable.

No JS? Fill the form by hand. The geolocation button needs JavaScript.

§ Radio — SatNOGS DB

ModeDescriptionDownlinkUplink
FM Mode U - Possibly Downlink 400.800 MHz

1 transmitter · refreshed weekly from db.satnogs.org